SCP
0 0 0 0 0 0 0 0 0 0 0 0 0 0 0 0 0 0 0 0 0 0 0 0 0 0 0 0 0 0 0 0 0 1 1 1 1 1 1 1 1 1 1 1 1 1 1 1 1
0 0 0 0 0 0 0 0 0 0 0 0 0 0 0 0 0 0 0 0 0 0 0 0 0 0 0 0 0 0 0 0 0 0 1 1 1 1 1 1 1 0 1 1 1 1 1 1 1
0 0 0 0 0 0 0 0 0 0 0 0 0 0 0 0 0 0 0 0 0 0 0 0 0 0 0 0 0 0 0 0 0 0 0 0 0 1 1 1 0 0 0 0 0 0 0 0 0
0 0 0 0 0 0 0 0 0 0 0 0 0 0 0 0 0 0 0 0 0 0 0 0 0 0 0 0 0 0 0 0 0 0 0 0 0 0 0 0 0 0 0 0 0 0 0 0 0
0 0 0 0 0 0 0 0 0 0 0 0 0 0 0 0 0 0 0 0 0 0 0 0 0 0 0 0 0 0 0 0 0 0 0 0 0 0 0 0 0 0 0 0 0 0 0 0 0
0 0 0 0 0 0 0 0 0 0 0 0 0 0 0 0 0 0 0 0 0 0 0 0 0 0 0 0 0 0 0 0 0 0 0 0 0 0 0 0 0 0 0 0 0 0 0 0 0
0 0 0 0 0 0 0 0 0 0 0 0 0 0 0 0 0 0 0 0 0 0 0 0 0 0 0 0 0 0 0 0 0 0 0 0 0 0 0 0 0 0 0 0 0 0 0 0 0
0 0 0 0 0 0 0 0 0 0 0 0 0 0 0 0 0 0 0 0 0 0 0 0 0 0 0 0 0 0 0 0 0 0 0 0 0 0 0 0 0 0 0 0 0 0 0 0 0
0 0 0 0 0 0 0 0 0 0 0 0 0 0 0 0 0 0 0 0 0 0 0 0 0 0 0 0 0 0 0 0 0 0 0 0 0 0 0 0 0 0 0 0 0 0 0 0 0
0 0 0 0 0 0 0 1 1 1 0 0 0 0 0 0 0 0 0 0 0 0 0 0 0 0 0 0 0 0 0 0 0 0 0 0 0 0 0 0 0 0 0 0 0 0 0 0 0
0 0 0 0 0 0 0 1 1 0 0 0 0 0 0 0 0 0 0 0 0 0 0 0 0 0 0 0 0 0 0 0 0 0 0 0 0 0 0 0 0 0 0 0 0 0 0 0 0
0 0 0 0 0 0 0 0 0 0 0 0 0 0 0 0 0 0 0 0 0 0 0 0 0 0 0 0 0 0 0 0 0 0 0 0 0 0 0 0 0 0 0 0 0 0 0 0 0
1 1 1 1 0 0 0 0 0 0 0 0 0 0 0 0 0 0 0 0 0 0 0 0 0 0 0 0 0 0 0 0 0 0 0 0 0 0 0 0 0 0 0 0 0 0 0 0 0
0 0 0 0 0 0 0 0 0 0 0 0 0 0 0 0 0 0 0 0 0 0 0 0 0 0 0 0 0 0 0 0 0 0 0 0 0 0 0 0 0 0 0 0 0 0 0 0 0
0 0 0 0 0 0 0 0 0 0 0 0 0 0 0 0 0 0 0 0 0 0 0 0 0 0 0 0 0 0 0 0 0 0 0 0 0 0 0 0 0 0 0 0 0 0 0 0 0
0 0 0 0 0 0 0 0 0 0 0 0 0 0 0 0 0 0 0 0 0 0 0 0 0 0 0 0 0 0 0 0 0 0 0 0 0 0 0 0 0 0 0 0 0 0 0 0 0
0 0 0 0 0 0 0 0 0 0 0 0 0 0 0 0 0 0 0 0 0 0 0 0 0 0 0 0 0 0 0 0 0 0 0 0 0 0 0 0 0 0 0 0 0 0 0 0 0
0 0 0 0 0 0 0 0 0 0 0 0 0 0 0 0 0 0 0 0 0 0 0 0 0 0 0 0 0 0 0 0 0 0 0 0 0 0 0 0 0 0 0 0 0 0 0 0 0
0 0 0 0 0 0 0 0 0 0 0 0 0 0 0 0 0 0 0 0 0 0 0 0 0 0 0 0 0 0 0 0 0 0 0 0 0 0 0 0 0 0 0 0 0 0 0 0 0
0 0 0 0 0 0 0 0 0 0 0 0 0 0 0 0 0 0 0 0 0 0 0 0 0 0 0 0 0 0 0 0 0 0 0 0 0 0 0 0 0 0 0 0 0 0 0 0 0
0 0 0 0 0 0 0 0 0 0 0 0 0 0 0 0 0 0 0 0 0 0 0 0 0 0 0 0 0 0 0 0 0 0 0 0 0 0 0 0 0 0 0 0 0 0 0 0 0
0 0 0 0 0 0 0 0 0 0 0 0 0 0 0 0 0 0 0 0 0 0 0 0 0 0 0 0 0 0 0 0 0 0 0 0 0 0 0 0 0 0 0 0 0 0 0 0 0
0 0 0 0 0 0 0 0 0 0 0 0 0 0 0 0 0 0 0 0 0 0 0 0 0 0 0 0 0 0 0 0 0 0 0 0 0 0 0 0 0 0 0 0 0 0 0 0 0
0 0 0 0 0 0 0 0 0 0 0 0 0 0 0 0 1 1 0 0 0 0 0 0 0 0 0 0 0 0 0 0 0 0 0 0 0 0 0 0 0 0 0 0 0 0 0 0 0
0 0 0 0 0 0 0 0 0 0 0 0 0 0 0 0 1 1 0 0 0 0 0 0 0 0 0 0 0 0 0 0 0 0 0 0 0 0 0 0 0 0 0 0 0 0 0 0 0
0 0 0 0 0 0 0 0 0 0 0 0 0 0 0 0 0 0 0 0 0 0 0 0 0 0 0 0 0 0 0 0 0 0 0 0 0 0 0 0 0 0 0 0 0 0 0 0 0
0 0 0 0 0 0 0 0 0 0 0 0 0 0 0 0 0 0 0 0 0 0 0 0 0 0 0 0 0 0 0 0 0 0 0 0 0 0 0 0 0 0 0 0 0 0 0 0 0
0 0 0 0 0 0 0 0 0 0 0 0 0 0 0 0 0 0 0 0 0 0 0 0 0 0 0 0 0 0 0 0 0 0 0 0 0 0 0 0 0 0 0 0 0 0 0 0 0
0 0 0 0 0 0 0 0 0 0 0 0 0 0 0 0 0 0 0 0 0 0 0 0 0 0 0 0 0 0 0 0 0 0 0 0 0 0 0 0 0 0 0 0 0 0 0 0 0
0 0 0 0 0 0 0 0 0 0 0 0 0 0 0 0 0 0 0 0 0 0 0 0 0 0 0 0 0 0 0 0 0 0 0 0 0 0 0 0 0 0 0 0 0 0 0 0 0
Wind_Speed
7 2 2 3 5 5 2 1 1 2 3 2 4 6 6 5 2 3 0 2 4 3 3 5 8 8 8 9 9 10 10 10 10 10 10 10 10 9 9 9 8 8 8 8 8 7 7 7 7
2 1 4 5 5 2 1 1 2 2 4 4 4 5 6 5 3 4 1 2 4 4 3 4 8 8 9 9 9 9 10 10 10 10 9 9 9 8 8 8 7 7 7 7 7 7 7 7 7
2 2 4 4 3 3 2 1 3 4 4 3 4 4 4 3 3 2 2 4 5 4 3 4 8 9 9 9 9 9 9 9 9 9 9 9 8 8 7 7 7 7 7 7 6 6 6 6 6
3 4 4 5 2 1 2 2 4 5 4 4 4 5 3 3 2 4 5 5 5 4 3 3 8 8 9 9 9 9 9 9 9 8 8 8 8 8 7 6 6 6 6 6 6 6 5 5 6
4 4 5 3 1 1 1 2 3 3 3 3 4 5 3 4 4 7 6 5 5 3 3 3 7 8 9 9 9 9 9 8 8 8 8 7 7 7 6 6 6 5 5 5 6 5 5 5 5
4 4 4 1 1 1 2 2 3 4 3 4 4 5 2 1 5 5 5 4 3 3 3 3 6 8 8 9 9 8 8 7 7 7 6 6 6 5 5 5 5 5 5 5 5 5 5 5 5
4 4 3 3 1 1 2 2 3 4 4 3 4 5 2 2 3 5 5 4 3 3 4 3 4 4 6 7 7 7 7 6 6 5 5 5 4 4 5 5 5 4 4 4 4 4 4 4 4
4 4 3 2 2 1 2 2 2 3 3 3 3 6 5 4 5 6 5 4 3 3 3 3 3 4 4 4 5 6 6 5 5 5 4 4 5 5 5 5 5 5 4 4 4 4 4 4 4
3 5 2 3 4 2 2 3 2 3 4 3 2 3 5 9 8 6 4 3 2 1 1 2 2 3 3 3 4 5 6 6 6 5 6 5 3 4 4 5 6 5 5 5 5 5 5 5 5
4 3 3 3 3 4 3 3 3 3 3 3 4 5 8 9 8 6 5 3 2 1 1 0 1 1 2 2 3 3 3 4 3 3 3 3 3 3 4 6 7 7 7 6 6 6 6 5 3
2 3 1 1 3 5 5 3 2 5 2 4 7 9 8 7 6 6 4 4 4 3 2 1 1 0 1 1 2 2 2 2 3 3 3 2 3 3 3 2 4 5 5 4 4 5 3 3 2
1 0 1 1 2 3 4 4 3 3 3 5 8 10 8 8 7 6 5 4 3 2 3 2 2 1 1 1 1 1 1 2 2 2 2 2 2 2 2 2 2 2 2 2 3 2 3 4 3
1 1 2 3 5 4 5 4 2 1 4 7 9 9 8 7 5 4 3 3 3 3 3 2 3 2 1 1 1 2 2 2 2 2 2 2 2 2 2 2 2 2 2 2 2 3 3 4 4
1 3 3 4 4 3 5 2 2 2 6 8 9 8 6 6 5 3 3 3 3 3 3 2 2 3 3 2 1 1 2 2 2 2 2 3 2 2 2 3 3 3 2 2 2 3 3 3 3
3 5 4 3 3 2 5 3 1 4 7 7 7 6 5 4 4 5 5 4 4 3 3 3 3 3 3 3 2 2 2 2 3 2 3 3 3 3 3 3 3 2 2 3 3 3 3 3 4
4 4 2 2 1 1 4 2 2 4 7 7 5 5 4 4 4 3 4 4 4 4 4 4 4 5 4 3 3 2 3 3 3 2 3 4 4 3 3 3 3 2 2 3 3 3 3 4 4
4 2 1 1 1 1 3 3 3 4 7 6 5 5 4 3 3 3 4 4 4 5 5 4 5 5 5 5 4 4 3 3 3 3 3 3 4 4 3 3 2 3 3 3 3 3 3 3 3
1 1 1 1 1 1 2 3 4 5 6 6 5 5 5 5 6 4 4 4 4 4 5 6 5 5 5 4 4 3 4 3 3 3 3 3 3 4 3 3 3 3 3 3 3 4 4 3 3
3 2 1 2 1 1 3 3 5 6 5 6 6 6 6 6 4 3 4 4 4 4 5 5 6 5 4 3 3 3 2 2 2 3 4 4 4 4 4 3 3 3 3 3 3 3 5 4 2
2 2 0 2 0 1 2 3 3 6 7 8 8 8 7 5 3 4 4 4 5 5 5 4 5 5 4 3 2 2 2 1 1 2 3 4 4 4 3 4 3 3 3 4 4 3 2 3 3
2 4 3 2 1 3 2 1 3 4 4 5 6 6 7 8 8 6 5 5 5 5 6 6 5 5 4 4 3 3 3 3 3 3 3 4 4 4 4 4 3 3 3 3 3 2 3 2 3
2 3 3 3 3 1 1 2 5 5 5 7 7 7 8 8 7 7 7 6 6 6 5 5 5 5 4 5 5 5 3 2 0 1 1 3 4 4 4 4 4 4 3 3 2 2 2 3 2
3 2 3 2 3 1 0 2 6 3 7 10 10 10 9 9 9 9 9 8 7 6 5 5 6 5 4 4 5 5 3 2 1 1 3 3 4 4 4 4 4 4 3 3 4 3 3 2 2
5 5 5 4 3 1 3 3 6 6 11 10 11 11 10 10 9 9 7 6 6 5 5 6 6 4 4 5 5 5 5 4 3 2 2 2 2 3 4 3 3 3 3 3 3 3 4 3 3
4 5 3 3 2 4 2 3 9 8 9 12 13 12 11 11 10 9 9 8 8 7 7 6 7 5 5 5 5 5 5 5 4 3 2 2 1 2 2 3 3 3 3 3 3 4 4 3 3
3 5 5 3 3 3 1 5 8 6 6 8 9 10 10 11 10 11 11 10 10 9 8 7 7 6 6 6 5 4 4 3 3 3 2 2 1 0 1 3 3 3 3 4 4 4 4 4 4
4 2 4 4 1 2 4 6 8 2 1 2 6 9 11 11 11 11 11 10 10 10 9 9 8 6 6 6 5 4 4 4 4 3 2 2 1 1 2 3 4 4 4 4 4 4 4 4 4
4 6 4 3 2 2 5 4 4 3 2 3 5 8 10 10 10 11 11 11 10 9 8 8 8 7 6 6 5 5 4 4 4 4 4 3 2 2 3 4 4 4 4 4 4 4 4 5 4
4 3 3 3 3 3 2 6 5 4 4 5 6 8 9 11 11 11 10 10 9 8 8 8 7 6 6 6 5 5 4 4 4 4 3 3 2 3 3 3 4 4 3 3 4 4 4 5 4
4 6 6 4 3 3 2 8 5 4 4 5 5 6 7 9 10 10 10 9 9 9 8 8 8 7 7 6 5 5 5 4 4 4 3 4 3 3 3 4 4 3 3 3 4 4 4 4 4
Wind_Direction
333 17 86 63 55 52 56 344 100 89 67 56 62 76 88 74 74 117 30 107 104 88 78 105 111 109 107 105 102 102 104 103 103 101 100 98 96 95 94 90 86 82 80 77 72 69 66 62 59
332 62 58 61 80 73 329 357 95 102 131 133 74 68 71 69 63 99 107 114 105 98 84 106 111 107 105 102 101 100 101 101 98 97 97 97 97 94 90 87 83 79 77 74 69 63 60 56 50
1 57 77 71 92 150 174 130 114 103 109 97 79 58 71 89 111 126 142 122 97 85 76 107 113 108 106 104 102 99 98 97 96 96 96 97 96 91 87 82 79 75 71 68 65 57 54 50 46
60 45 55 70 88 208 167 143 130 121 86 61 90 71 55 39 138 138 126 114 101 83 71 107 112 111 107 103 101 97 95 95 94 93 92 90 87 84 80 76 72 68 63 60 57 50 47 46 41
58 71 63 58 47 355 87 123 109 94 74 67 89 87 46 1 97 113 114 111 111 93 70 100 114 111 108 105 100 96 95 93 92 88 85 82 79 77 73 68 63 61 57 53 52 46 41 43 42
54 64 85 117 46 28 57 80 94 87 92 92 93 96 70 82 118 122 114 108 105 96 68 69 107 109 105 102 100 97 93 90 85 80 75 72 68 63 60 54 52 51 47 46 47 43 40 38 37
94 90 122 144 133 93 120 97 103 109 101 107 112 100 109 140 137 120 107 99 87 75 63 45 47 69 87 92 92 88 86 83 77 71 63 57 51 43 37 33 33 36 38 35 36 35 35 34 31
111 97 92 137 149 163 118 99 87 101 106 109 108 131 164 179 130 105 95 85 76 66 58 50 43 41 39 43 66 73 72 65 56 47 42 34 25 17 13 11 10 15 20 23 26 25 33 36 35
84 78 147 193 177 165 132 112 82 72 98 81 83 138 150 132 120 110 97 79 73 89 49 52 46 35 29 21 38 41 38 36 35 26 23 27 18 9 2 356 0 7 15 21 31 33 41 46 44
83 123 212 201 171 150 132 117 119 91 83 79 79 89 113 123 133 138 146 160 177 201 232 141 63 29 20 20 35 22 25 23 26 24 23 19 15 7 15 6 12 16 21 26 35 41 46 48 36
114 175 217 108 134 131 125 106 108 123 145 174 151 143 135 137 145 157 168 180 193 199 208 185 184 80 48 26 21 21 21 17 17 24 29 34 31 20 24 19 13 13 23 24 25 37 40 41 41
94 343 133 113 106 112 125 122 125 164 189 162 150 146 145 153 165 175 181 191 183 179 208 196 170 150 108 65 35 34 31 21 23 25 41 56 45 30 22 26 14 18 17 22 28 40 43 41 42
76 57 73 87 79 99 106 115 129 140 121 123 132 140 153 164 171 176 171 177 170 182 203 192 174 163 131 95 45 53 42 45 47 40 42 69 68 44 32 30 27 24 24 33 38 43 46 45 41
117 89 71 66 81 94 111 84 95 136 126 126 139 150 161 168 171 160 163 176 181 185 190 179 161 148 126 115 96 68 57 59 59 52 51 66 76 68 52 43 34 26 24 33 49 53 56 53 50
94 86 56 42 67 101 110 67 174 151 136 140 153 157 166 177 173 179 184 179 177 171 163 155 139 118 119 113 95 80 66 67 60 51 50 61 70 70 64 51 38 21 23 42 55 53 54 58 57
61 73 69 323 69 109 119 177 222 155 147 159 168 167 173 185 185 191 181 172 163 150 149 151 135 121 114 103 91 78 67 66 56 48 48 54 61 69 68 56 36 23 37 49 62 54 60 55 56
42 93 130 315 44 114 131 190 204 171 160 170 180 180 181 187 198 204 189 174 161 152 143 129 121 123 115 103 89 76 66 56 45 44 44 46 53 60 71 58 36 40 52 47 63 55 66 67 64
156 120 123 241 295 130 157 210 194 175 174 181 188 183 188 199 211 200 189 172 151 139 134 125 118 116 112 98 83 66 54 41 35 39 37 43 47 53 65 60 43 48 60 50 57 66 59 63 61
132 126 149 251 232 165 190 205 200 186 184 191 196 192 198 211 214 187 179 157 137 133 135 139 135 136 128 112 101 90 65 26 26 30 36 42 47 50 59 61 50 50 65 64 69 76 67 50 34
128 134 209 290 277 151 191 236 220 196 197 199 198 201 199 195 190 185 173 159 158 158 155 151 151 151 149 129 119 115 110 69 39 19 33 32 40 45 61 64 62 56 68 61 56 71 81 50 34
180 184 195 203 46 49 94 318 247 224 208 208 203 198 195 193 190 186 179 177 171 171 172 168 164 157 153 132 108 85 60 41 30 20 17 13 33 47 55 63 68 62 69 71 60 72 96 94 44
220 215 181 160 117 325 128 248 258 221 212 217 213 202 200 198 190 185 180 180 184 185 173 160 157 156 154 144 138 133 125 117 78 16 19 21 34 45 48 56 61 61 61 64 54 66 86 107 90
187 113 98 101 114 57 57 194 272 206 221 225 216 207 201 197 191 188 187 186 182 174 166 156 148 151 152 150 145 132 124 127 97 61 54 37 29 36 44 54 57 56 54 57 55 58 67 81 106
125 81 67 49 68 267 219 192 267 216 213 214 212 206 198 193 192 189 184 169 164 161 156 149 149 153 152 148 146 147 146 142 124 97 76 44 26 25 36 53 55 56 56 58 60 62 67 69 81
97 96 51 15 3 254 221 209 251 236 215 209 205 202 194 187 184 179 176 172 169 168 166 158 155 160 159 153 156 161 158 154 153 150 135 106 51 25 19 46 53 52 56 62 68 70 63 63 76
161 139 153 186 222 280 256 236 256 261 241 219 204 194 185 183 183 183 183 178 175 173 171 163 164 167 166 164 166 162 159 153 155 156 149 140 128 89 43 64 62 57 59 65 68 68 63 62 67
135 159 160 137 172 268 273 280 296 293 300 210 191 182 186 186 184 183 179 177 176 175 177 173 167 168 173 169 158 157 159 158 159 152 140 134 130 113 85 79 72 61 62 67 72 68 60 63 61
140 142 109 122 156 266 297 281 264 291 275 215 192 190 191 185 183 181 178 179 179 176 173 167 166 171 171 164 162 160 164 163 156 144 145 143 130 104 99 88 81 71 65 68 74 70 64 70 59
127 120 119 123 155 163 287 278 232 227 223 216 209 197 188 183 183 182 178 175 168 162 163 164 167 163 163 164 160 151 156 154 147 146 153 151 137 127 116 108 98 88 78 79 83 77 75 76 64
166 169 151 155 201 178 208 271 270 241 237 221 213 198 186 183 180 175 169 163 163 167 169 169 171 172 171 164 156 155 152 150 152 156 156 149 144 138 130 117 106 99 92 91 95 91 83 84 76